Location: Croissy-Beaubourg
(48.8283°N, 2.6696°E)
Time: 00:23:59
(UTC+00:00)

USA 215 - Pass Details

Date: 30 May 2022
Orbit: 1099 x 1108 km, 123.0° (Epoch: 10 June)

Event Time Altitude Azimuth Distance (km) Brightness Sun altitude
Rises 02:35:55 0° 71° (ENE) 3,920 7.3 -10.0°
Reaches altitude 10° 02:38:30 10° 65° (ENE) 2,963 6.7 -9.7°
Maximum altitude 02:44:36 44° 356° (N) 1,486 4.4 -9.1°
Drops below altitude 10° 02:50:43 10° 287° (WNW) 2,967 5.3 -8.4°
Sets 02:53:19 0° 282° (WNW) 3,926 5.8 -8.1°
